Location: ???????
(55.4362°N, 38.1183°E)
Time: 06:01:13
(UTC+00:00)

Daily predictions for brighter satellites

Satellite Brightness Start Highest point End
(mag) Time Altitude Azimuth Time Altitude Azimuth Time Altitude Azimuth
Cosmos 1455 Rocket 4.0 19:06:10 10° NNW 19:10:27 48° W 19:14:44 10° SSW
In-Cosmos 22 4.5 19:05:27 10° SSW 19:10:43 69° WNW 19:16:03 10° NNE
ERS-1 Rocket 3.3 19:05:55 10° S 19:10:56 66° WSW 19:15:59 10° NNW
USA 215 4.4 19:06:57 10° E 19:11:48 22° SE 19:16:36 10° S
Cosmos 1331 Rocket 4.2 19:07:01 10° S 19:12:09 56° ESE 19:17:20 10° NNE
Cosmos 1943 Rocket 4.2 19:07:56 10° NNW 19:12:17 23° NNE 19:16:36 10° ENE
SJ 16-02 3.9 19:11:06 10° N 19:13:11 13° NE 19:15:17 10° ENE
Cosmos 1707 4.5 19:10:39 10° SW 19:14:14 35° WNW 19:17:52 10° N
Lacrosse 5 rocket 2.2 19:12:07 10° S 19:14:56 21° SE 19:17:44 10° E
Cosmos 1725 Rocket 4.1 19:10:15 10° N 19:16:29 87° ENE 19:22:41 10° S
Cosmos 2333 Rocket 2.8 19:16:16 10° S 19:21:33 39° ESE 19:26:51 10° NE
ALOS 2 4.4 19:19:24 10° ESE 19:22:50 23° ENE 19:26:18 10° N
USA 238 DEB 4.1 19:17:20 10° WSW 19:24:01 72° NNW 19:31:08 10° NE
USA 238 4.1 19:17:27 10° WSW 19:24:07 73° NNW 19:31:13 10° NE
Meteor 2-10 Rocket 3.8 19:22:18 10° N 19:27:24 59° ENE 19:32:22 10° SSE
BREEZE-M DEB (TANK) 3.9 19:25:46 10° SW 19:28:35 32° SSE 19:35:03 10° E
Cosmos 1953 3.9 19:25:27 10° NNW 19:29:04 31° W 19:32:41 10° SSW
Cosmos 1607 4.3 19:22:37 10° NW 19:29:06 70° NE 19:35:27 10° ESE
Cosmos 1302 Rocket 4.5 19:26:03 10° S 19:31:01 44° ESE 19:36:00 10° NE
Cosmos 1802 Rocket 4.5 19:25:01 10° NNW 19:31:09 61° W 19:37:21 10° S
CENTAUR R/B 3.2 19:26:01 10° WSW 19:32:25 70° NNW 19:40:07 10° NE
Cosmos 2219 Rocket 2.7 19:27:38 10° S 19:32:55 41° ESE 19:38:13 10° NE
Cosmos 1867 3.6 19:29:14 10° NW 19:34:45 82° SW 19:40:14 10° SE
Cosmos 1626 2.4 19:31:28 10° SSW 19:35:08 71° WNW 19:38:52 10° N
DNEPR-1 R/B 4.3 19:34:15 10° WNW 19:38:14 40° SW 19:42:17 10° SSE
SL-14 R/B 3.3 19:34:15 10° S 19:38:17 83° ESE 19:42:21 10° NNE
NOSS 8 (A) 4.1 19:37:15 10° SW 19:40:18 84° NW 19:43:15 10° NE
Cosmos 1536 Rocket 3.6 19:38:50 10° S 19:43:19 79° E 19:47:46 10° NNE
Meteor 1-24 Rocket 3.9 19:39:26 10° S 19:44:39 57° E 19:50:04 10° NNE
USA 267 3.3 19:42:42 10° ESE 19:49:16 76° SSW 19:55:50 10° WNW
Cosmos 2237 Rocket 3.7 19:45:40 10° SSE 19:49:39 20° E 19:53:39 10° NE
Cosmos 1025 Rocket 3.8 19:48:11 10° SSW 19:52:29 53° WNW 19:56:47 10° N
Cosmos 389 Rocket 2.4 19:49:56 10° NNW 19:53:22 75° ENE 19:56:27 12° SSE
Cosmos 2369 Rocket 4.3 19:49:35 10° NNW 19:54:17 25° NNE 19:58:57 10° E
Cosmos 2360 Rocket 2.4 19:49:31 10° SW 19:55:11 76° NW 20:00:52 10° NNE
SL-16 R/B 3.4 19:49:47 10° WSW 19:55:15 46° NW 20:00:44 10° NNE
Cosmos 2228 3.1 19:51:31 10° N 19:55:57 85° E 20:00:06 12° SSE
Cosmos 2322 Rocket 3.2 19:51:44 10° SW 19:57:19 52° NW 20:02:55 10° NNE
Cosmos 1486 Rocket 4.1 19:54:47 10° NNW 20:00:02 73° WSW 20:04:53 12° SSE
Meteor 1-4 Rocket 4.5 20:02:21 10° NNE 20:05:04 20° ENE 20:07:45 10° ESE
Cosmos 1455 2.5 20:03:44 10° N 20:07:33 59° ENE 20:10:51 13° SSE
ATLAS CENTAUR R/B 3.0 20:05:09 10° WNW 20:08:39 24° WSW 20:12:14 10° S
Cosmos 968 Rocket 4.0 20:03:51 10° NW 20:08:48 50° WSW 20:13:28 11° S
Lacrosse 4 Rocket 4.4 20:07:09 10° NNW 20:09:42 15° N 20:12:13 10° NE
COSMOS 2428 2.8 20:07:39 10° SSW 20:13:18 62° ESE 20:18:59 10° NE
Cosmos 1354 Rocket 4.1 20:08:21 10° NNW 20:13:44 82° ENE 20:18:44 12° SSE
OPS 8737 4.2 20:10:55 10° SW 20:14:27 65° SE 20:17:23 10° NE
Cosmos 2322 3.7 20:09:31 10° SSW 20:15:11 83° ESE 20:20:54 10° NE
Cosmos 1300 4.3 20:12:19 10° NNW 20:15:39 29° W 20:18:58 10° SSW
Terra 3.4 20:11:46 10° SSW 20:15:49 27° W 20:19:54 10° NW
Cosmos 2278 Rocket 2.3 20:11:21 10° NW 20:17:01 73° WSW 20:22:11 13° SSE
Cosmos 1992 Rocket 4.4 20:13:57 11° S 20:18:46 48° ESE 20:23:48 10° NE
Cosmos 1184 Rocket 4.1 20:17:13 14° SE 20:19:24 26° E 20:22:11 10° NE
FALCON 9 DEB 4.2 20:23:01 11° SSW 20:25:22 21° SSE 20:27:51 10° E
Cosmos 2058 Rocket 3.2 20:21:46 10° N 20:26:15 73° ENE 20:30:02 14° SSE
Cosmos 1726 Rocket 3.8 20:29:31 10° NNW 20:33:59 66° W 20:37:48 14° S
GEOS 3 Rocket 4.4 20:30:12 13° S 20:34:36 39° SW 20:39:36 10° WNW
Cosmos 1513 Rocket 4.5 20:30:22 10° NNW 20:36:29 89° WSW 20:41:56 13° S
Cosmos 1340 4.5 20:34:20 10° SW 20:37:39 28° WNW 20:40:59 10° N
NOSS 0 Rocket 4.2 20:32:46 10° S 20:38:40 52° ESE 20:44:42 10° NE
Cosmos 1346 Rocket 3.0 20:35:48 11° SSW 20:39:43 74° WNW 20:43:47 10° NNE
FALCON 9 DEB 3.2 20:39:45 10° WSW 20:43:05 50° S 20:46:25 10° E
ATLAS 3B R/B 2.6 20:36:44 10° SW 20:43:20 84° SE 20:50:15 10° NE
Meteor 2-5 Rocket 4.5 20:38:07 10° SW 20:43:30 51° WNW 20:49:01 10° N
FALCON 9 DEB 3.6 20:43:07 10° SW 20:45:54 30° SSE 20:48:41 10° E
SL-4 R/B 3.5 20:46:49 15° SSE 20:47:23 16° SSE 20:49:41 10° ESE
FALCON 9 DEB 3.8 20:46:54 10° SW 20:49:38 28° SSE 20:52:24 10° E
SJ 16-02 2.1 20:48:37 10° NNW 20:52:53 48° ENE 20:57:08 10° SE
Lacrosse 5 rocket 0.8 20:49:59 10° WSW 20:53:36 74° SSE 20:57:11 10° ENE
Meteor 2-1 Rocket 4.3 20:49:35 10° NNW 20:55:06 75° W 20:59:50 14° S
FALCON 9 DEB 3.5 20:52:28 10° SW 20:55:18 32° SSE 20:58:08 10° E
USA 215 3.4 20:49:26 10° ENE 20:55:51 55° SE 21:02:16 10° SW
Cosmos 1892 Rocket 3.6 20:52:24 13° SSW 20:56:16 87° WNW 21:00:46 10° NNE
Cosmos 1943 Rocket 2.6 20:51:39 10° NNW 20:57:08 61° NE 21:02:36 10° SE
ALOS 2 2.8 20:55:17 15° S 20:58:50 64° WSW 21:03:13 10° NNW
Cosmos 1980 3.9 20:54:12 12° SSW 20:59:20 59° ESE 21:04:57 10° NE
CZ-3B R/B 3.8 20:37:59 10° WSW 21:00:17 79° SSE 21:05:06 10° E
BREEZE-M DEB (TANK) 3.3 21:01:33 10° WSW 21:05:03 48° SSE 21:14:51 10° E
Cosmos 2333 Rocket 3.0 21:00:06 10° SW 21:05:44 55° NW 21:11:23 10° NNE
Cosmos 1441 Rocket 3.3 21:03:19 16° S 21:06:14 63° E 21:10:02 10° NNE
USA 32 4.3 21:00:59 10° N 21:06:14 65° E 21:10:46 14° SSE
Cosmos 1703 3.3 21:04:21 16° S 21:07:24 73° E 21:11:23 10° NNE
Cosmos 1464 Rocket 4.4 21:05:35 10° NNW 21:11:49 60° W 21:17:21 13° S
SAR-Lupe-2 3.8 21:10:00 10° NNE 21:13:33 57° ESE 21:16:08 17° S
Cosmos 2219 Rocket 3.0 21:11:16 10° SW 21:16:49 52° NW 21:22:24 10° NNE
Thor Agena Rocket 4.0 21:14:41 10° NNE 21:19:51 52° E 21:24:03 15° S
Cosmos 1328 3.9 21:16:59 17° S 21:19:53 64° E 21:23:46 10° NNE
Cosmos 1634 Rocket 4.3 21:15:31 10° N 21:21:50 69° ENE 21:27:45 12° SSE
CENTAUR R/B 4.1 21:17:34 10° WNW 21:24:13 47° N 21:32:02 10° ENE
Cosmos 1626 Rocket 3.7 21:22:52 16° S 21:26:24 72° E 21:30:50 10° NNE
SL-16 R/B 3.0 21:24:26 15° S 21:28:42 38° ESE 21:33:54 10° NE
PSLV R/B 4.3 21:24:40 10° NNE 21:28:47 42° E 21:32:07 15° SSE
USA 267 3.9 21:27:29 12° SSE 21:32:55 36° SW 21:38:53 10° WNW
Cosmos 2237 Rocket 2.2 21:27:21 10° SSW 21:32:58 87° ESE 21:38:39 10° NE
Cosmos 1602 Rocket 3.8 21:29:45 16° S 21:33:16 63° E 21:37:43 10° NNE
Helios 1A 4.3 21:29:39 10° SE 21:33:29 36° ENE 21:37:20 10° N
Cosmos 1816 Rocket 4.5 21:32:37 14° S 21:37:59 89° W 21:44:10 10° NNE
Cosmos 2369 Rocket 2.6 21:33:37 10° NNW 21:39:22 68° NE 21:45:04 10° SE
MTI 3.9 21:36:36 10° N 21:39:39 64° WNW 21:41:54 16° SSW
Cosmos 2360 Rocket 4.4 21:35:23 10° W 21:40:06 26° NNW 21:44:49 10° NNE
Meteor 1-4 Rocket 3.1 21:36:55 10° NNW 21:40:16 42° W 21:42:37 17° SSW
Cosmos 1758 Rocket 4.2 21:37:10 15° SSE 21:40:40 48° E 21:44:56 10° NNE
OPS 6432 4.4 21:39:02 10° WNW 21:41:54 50° SW 21:44:39 13° SSE
Cosmos 1455 4.3 21:40:12 10° NW 21:42:44 17° W 21:45:15 10° SW
Cosmos 1825 4.4 21:41:30 10° SE 21:43:56 17° E 21:46:22 10° NE
Lacrosse 4 Rocket 3.6 21:46:03 10° NNW 21:49:40 28° NNE 21:53:14 10° E
Cosmos-2242 3.1 21:48:25 10° NNW 21:52:52 88° W 21:56:34 15° S
Cosmos 1184 Rocket 4.5 21:50:09 10° SW 21:52:59 27° WNW 21:55:50 10° N
Okean 1-7 Rocket 4.4 21:50:10 11° SW 21:54:14 45° WNW 21:58:32 10° N
COSMOS 2428 4.1 21:52:33 10° WSW 21:57:56 39° NW 22:03:20 10° NNE
Cosmos 2297 4.1 21:54:26 10° NW 21:59:52 49° WSW 22:04:36 13° S
Cosmos 2278 Rocket 4.1 21:56:46 10° WNW 22:00:11 16° W 22:03:34 10° SW
FALCON 9 DEB 3.0 21:57:37 10° WSW 22:00:40 49° S 22:03:42 10° E
Meteor 1-27 4.2 21:57:34 10° NNW 22:03:09 77° W 22:08:07 13° S
Cosmos 1812 Rocket 4.2 22:00:39 10° NNW 22:04:47 44° W 22:08:08 15° SSW
Cosmos 1408 3.5 22:03:01 13° SSE 22:05:56 40° E 22:09:25 10° NNE
ATLAS CENTAUR R/B 4.1 21:59:44 10° SW 22:05:57 65° SE 22:22:46 10° ENE
Meteor 1-11 4.2 22:02:03 14° SSW 22:06:56 87° WNW 22:12:34 10° NNE
Cosmos 2142 Rocket 4.5 22:07:53 10° NNW 22:14:03 80° W 22:19:47 12° S
YAOGAN 11 4.2 22:10:04 11° SSE 22:14:18 87° ENE 22:18:51 10° NNW
Cosmos 1242 Rocket 4.3 22:12:10 10° N 22:15:22 29° ENE 22:18:34 10° SE
Cosmos 990 Rocket 4.0 22:11:41 10° NNW 22:16:55 77° WSW 22:22:05 10° SSE
Tsikada Rocket 4.3 22:11:29 12° SSW 22:17:09 62° WNW 22:23:17 10° N
GP-B 3.8 22:13:14 10° N 22:17:29 45° W 22:21:12 13° SSW
FALCON 9 DEB 3.2 22:16:25 10° W 22:19:45 52° S 22:23:04 10° ESE
Cosmos 1606 4.4 22:16:55 10° N 22:20:25 31° ENE 22:23:51 10° SE
USA 229 DEB 4.4 22:15:16 13° S 22:20:29 39° ESE 22:26:46 10° NE
SL-16 R/B 3.1 22:14:31 10° SE 22:20:35 60° ENE 22:26:40 10° NNW
USA 229 4.4 22:15:23 13° S 22:20:35 38° ESE 22:26:52 10° NE
FALCON 9 DEB 2.9 22:18:09 10° WSW 22:21:13 54° S 22:24:14 10° E
Cosmos 1869 3.4 22:17:13 10° NNW 22:21:19 67° W 22:24:45 14° S
Cosmos 2221 3.2 22:17:54 10° N 22:22:09 51° ENE 22:26:19 10° SSE
Cosmos 1898 Rocket 3.5 22:18:04 10° NNW 22:23:22 83° WSW 22:28:35 10° SSE
Cosmos 1932 4.4 22:18:29 10° NW 22:24:45 77° SW 22:30:56 10° SE
FALCON 9 DEB 2.9 22:21:58 10° WSW 22:25:01 54° S 22:28:05 10° E
Aureole 3 4.2 22:21:55 10° NNW 22:25:07 34° W 22:28:14 14° SSW
SL-4 R/B 2.3 22:22:45 10° SW 22:26:17 36° SSE 22:29:37 10° E
Cosmos 1937 Rocket 3.6 22:21:35 10° NNW 22:26:58 82° ENE 22:32:18 10° SSE
Cosmos 1437 Rocket 3.1 22:23:04 10° N 22:27:00 65° ENE 22:30:50 10° SSE
NOSS 3-1 (C) 3.6 22:25:09 13° SSW 22:30:02 56° SE 22:36:25 10° NE
FALCON 9 DEB 2.9 22:27:36 10° WSW 22:30:39 55° S 22:33:42 10° E
SJ 16-02 2.5 22:27:32 10° NW 22:31:17 28° WSW 22:34:22 13° SSW
Lacrosse 5 rocket 1.4 22:29:11 10° W 22:32:45 66° N 22:36:22 10° E
In-Cosmos 22 Rocket 4.2 22:27:48 13° S 22:32:51 79° ESE 22:38:19 10° NNE
ATLAS 3B R/B 3.7 22:28:09 10° W 22:34:37 49° NNW 22:41:23 10° ENE
Cosmos 1825 Rocket 3.7 22:35:13 13° SSW 22:39:07 74° WNW 22:43:36 10° N
NOSS 2-3 (E) 4.1 22:35:36 14° SSW 22:39:08 48° SE 22:44:03 10° NE
USA 215 3.3 22:32:37 10° ENE 22:39:13 87° NNW 22:45:46 10° WSW
NOSS 3-1 (A) 4.0 22:35:15 13° S 22:39:55 42° ESE 22:45:58 10° NE
Cosmos 1943 Rocket 3.0 22:35:46 10° NW 22:40:37 32° WSW 22:45:00 12° SSW
USA 281 4.3 22:36:41 10° ESE 22:42:55 48° NE 22:49:11 10° NNW
Cosmos 1943 4.1 22:39:26 10° S 22:44:31 38° ESE 22:49:42 10° NE
MOZ.5/SAFIR/RUBIN 5/SL-8 3.8 22:39:50 10° S 22:44:34 72° WSW 22:49:22 10° NNW
Cosmos 1892 2.9 22:42:44 13° SSW 22:46:04 67° WNW 22:49:58 10° N
Cosmos 2058 3.4 22:42:43 11° S 22:46:35 52° E 22:50:36 10° NNE
Resurs 1-4 Rocket 2.9 22:41:30 10° NNE 22:46:36 45° E 22:51:41 10° S
Aureole 3 Rocket 3.5 22:46:11 10° N 22:49:35 51° ENE 22:53:56 10° SSE
Cosmos 1356 3.4 22:47:36 14° SSW 22:50:29 79° WNW 22:53:54 10° NNE
Cosmos 1603 4.5 22:45:37 11° S 22:50:50 43° ESE 22:56:10 10° NE
EO 1 Del DPAF 4.0 22:53:14 10° N 22:56:47 42° WNW 23:00:15 10° SW
CZ-2D R/B 2.7 22:53:08 10° NNE 22:58:15 52° E 23:03:20 10° S
Cosmos 468 Rocket 4.1 22:57:16 11° SSW 23:02:11 75° ESE 23:07:26 10° NNE
ADEOS II 3.5 22:57:39 10° NNE 23:02:21 31° E 23:07:00 10° SSE
Cosmos 1953 Rocket 3.7 22:58:35 12° SSW 23:02:38 66° WNW 23:07:03 10° N
ADEOS Rocket 3.7 22:55:52 10° SSE 23:03:01 67° ENE 23:09:29 10° NNW
Helios 1B rocket 3.4 23:00:43 10° NNE 23:04:38 41° E 23:08:31 10° S
Cosmos 372 Rocket 4.0 23:03:19 10° NNW 23:08:35 82° WSW 23:13:50 10° SSE
Helios 1A 3.9 23:05:25 11° SSW 23:09:03 34° W 23:12:55 10° NNW
CREW DRAGON DEMO-1 DEB 4.3 23:08:54 12° S 23:09:57 15° SSE 23:11:29 10° ESE
Cosmos 2098 Rocket 3.5 23:04:30 10° S 23:10:04 73° E 23:14:27 10° NNE
SL-16 R/B 2.7 23:07:06 10° SW 23:12:41 56° NW 23:18:18 10° NNE
CZ-4 R/B 4.0 23:08:38 10° NNE 23:13:15 65° WNW 23:17:53 10° SSW
CENTAUR R/B 3.9 23:08:58 10° WNW 23:16:17 57° NNE 23:24:43 10° E
MINOTAUR 4 R/B 4.3 23:12:48 10° SSE 23:16:20 70° ENE 23:19:52 10° NNW
Cosmos 1842 Rocket 3.8 23:12:57 10° NNW 23:17:12 55° W 23:21:27 10° S
X-37B 2.6 23:16:04 11° SSW 23:17:15 13° S 23:18:47 10° SSE
Cosmos 2237 Rocket 3.8 23:12:48 10° W 23:17:43 30° NW 23:22:41 10° NNE
Cosmos 405 Rocket 2.9 23:15:08 11° SSW 23:18:40 57° WNW 23:22:19 10° N
Cosmos 1825 2.4 23:15:22 11° SSW 23:19:00 59° WNW 23:22:45 10° N
NOSS 2-3 (D) 3.8 23:15:35 10° SW 23:19:52 80° SE 23:25:11 10° NE
IDEFIX/ARIANE 42P 4.4 23:16:03 10° NE 23:20:26 26° E 23:24:47 10° SSE
Cosmos 1763 Rocket 3.5 23:15:35 10° SSW 23:20:41 85° WNW 23:25:53 10° NNE
Cosmos 2369 Rocket 3.1 23:18:06 10° NW 23:23:03 31° WSW 23:27:57 10° SSW
Cosmos 1656 Rocket 4.2 23:20:07 10° NW 23:25:26 42° WSW 23:30:43 10° S
Meteor 1-29 4.2 23:25:17 10° NNE 23:28:30 36° E 23:31:40 10° SSE
Lacrosse 4 Rocket 1.3 23:24:36 10° NW 23:28:45 74° SW 23:32:48 10° SSE
Cosmos 1933 3.7 23:31:32 10° N 23:35:37 69° ENE 23:39:42 10° SSE
FALCON 9 DEB 3.1 23:33:06 10° W 23:36:10 48° S 23:39:12 10° ESE
Cosmos 1437 2.5 23:33:58 10° NNW 23:36:43 55° W 23:39:28 10° S
NOSS 2-3 (C) 3.9 23:32:27 10° SW 23:36:49 82° NW 23:42:17 10° NE
Cosmos 921 Rocket 3.3 23:32:45 10° S 23:36:54 59° ESE 23:41:02 10° NNE
Cosmos 1408 4.3 23:38:03 10° WSW 23:41:04 23° WNW 23:44:06 10° N
